This is the latest recevied weather packets stored in our database for station/object W4OTS. If no packets are shown the sender has not sent any weather packets the latest 10 day(s).
| Time | Temp. | Humidity | Pressure | Rain* | Wind** | Luminosity | Snow |
|---|---|---|---|---|---|---|---|
| 1777313192 | 20° C | 60% | 1024.6 hPa | 0 mm | - | 603 W/m² | - |
| 1777312887 | 20° C | 59% | 1024.6 hPa | 0 mm | - | 570 W/m² | - |
| 1777312584 | 19.44° C | 63% | 1024.5 hPa | 0 mm | - | 652 W/m² | - |
| 1777312281 | 19.44° C | 64% | 1024.7 hPa | 0 mm | - | 665 W/m² | - |
| 1777311978 | 19.44° C | 64% | 1024.7 hPa | 0 mm | - | 655 W/m² | - |
| 1777311675 | 19.44° C | 64% | 1024.8 hPa | 0 mm | - | 684 W/m² | - |
| 1777311373 | 19.44° C | 63% | 1024.6 hPa | 0 mm | - | 707 W/m² | - |
| 1777311070 | 19.44° C | 62% | 1024.9 hPa | 0 mm | - | 719 W/m² | - |
| 1777310768 | 19.44° C | 61% | 1025.1 hPa | 0 mm | - | 724 W/m² | - |
| 1777310465 | 18.89° C | 61% | 1025.1 hPa | 0 mm | - | 727 W/m² | - |
| 1777310162 | 18.89° C | 64% | 1025.5 hPa | 0 mm | - | 743 W/m² | - |
| 1777309859 | 19.44° C | 62% | 1025.3 hPa | 0 mm | - | 713 W/m² | - |
| 1777309558 | 18.89° C | 61% | 1025.2 hPa | 0 mm | - | 700 W/m² | - |
| 1777309254 | 18.33° C | 64% | 1025.3 hPa | 0 mm | - | 733 W/m² | - |
| 1777308952 | 17.78° C | 68% | 1025.5 hPa | 0 mm | - | 594 W/m² | - |
| 1777308648 | 17.78° C | 64% | 1025.5 hPa | 0 mm | - | 476 W/m² | - |
| 1777308344 | 18.33° C | 65% | 1025.9 hPa | 0 mm | - | 334 W/m² | - |
| 1777308039 | 18.33° C | 62% | 1025.7 hPa | 0 mm | - | 721 W/m² | - |
| 1777307737 | 17.78° C | 65% | 1025.7 hPa | 0 mm | - | 465 W/m² | - |
| 1777307434 | 18.33° C | 68% | 1025.5 hPa | 0 mm | - | 739 W/m² | - |
| 1777307131 | 17.22° C | 65% | 1025.5 hPa | 0 mm | - | 721 W/m² | - |
| 1777306829 | 18.89° C | 62% | 1025.7 hPa | 0 mm | - | 724 W/m² | - |
| 1777306526 | 17.78° C | 65% | 1025.9 hPa | 0 mm | - | 729 W/m² | - |
| 1777306221 | 18.89° C | 62% | 1026.2 hPa | 0 mm | - | 653 W/m² | - |
| 1777305916 | 17.78° C | 66% | 1026.1 hPa | 0 mm | - | 725 W/m² | - |
* Rain latest hour (hover to see other rain measurements)
** Current wind speed in m/s (hover to see current wind gust speed)